Regional Weather Roundup
Issued by NWS

Home | Current Version | Previous Version | Text Only | Print | Product List | Glossary On
Versions: 1 2 3 4 5 6 7 8 9 10 11 12 13 14 15 16 17 18 19 20 21 22 23 24 25 26 27 28 29 30 31 32 33 34 35 36 37 38 39 40 41 42 43 44 45 46 47 48 49 50
000
ASUS43 KLSX 260007
RWRMO
STLRWRMO ALL

WEATHER SUMMARY FOR MISSOURI
NATIONAL WEATHER SERVICE SPRINGFIELD MO
700 PM CDT THU MAY 25 2017

NOTE: "FAIR" INDICATES FEW OR NO CLOUDS BELOW 12,000 FEET WITH NO
       SIGNIFICANT WEATHER AND/OR OBSTRUCTIONS TO VISIBILITY.
       CURRENT SKY AND/OR WEATHER CONDITIONS ARE NOT AVAILABLE FOR
       CHILLICOTHE AND FARMINGTON.

MOZ001>031-035>038-043-044-053-054-260100-
...NORTHERN AND WESTERN MISSOURI...

CITY           SKY/WX    TMP DP  RH WIND       PRES   REMARKS
KANSAS CTY INT MOSUNNY   73  55  53 SE18      29.57F
6HR MIN TEMP:  71; 6HR MAX TEMP:  76;

KANSAS C DTWN  SUNNY     76  54  46 SE8G22    29.57F
6HR MIN TEMP:  73; 6HR MAX TEMP:  78;

LEE`S SUMMIT   MOSUNNY   74  56  53 SE8G20    29.60S
6HR MIN TEMP:  71; 6HR MAX TEMP:  76;

ST JOSEPH      SUNNY     75  57  53 SE13      29.56F
6HR MIN TEMP:  72; 6HR MAX TEMP:  77; 6HR PCP: TRACE;

CHILLICOTHE      N/A     73  52  47 SE8       29.62S
6HR MIN TEMP:  69; 6HR MAX TEMP:  74;

KIRKSVILLE     SUNNY     71  51  49 S10       29.66F
6HR MIN TEMP:  66; 6HR MAX TEMP:  72;


$$
MOZ066>068-077>081-088>096-101>105-260100-
...SOUTHWEST MISSOURI...

CITY           SKY/WX    TMP DP  RH WIND       PRES   REMARKS
SPRINGFIELD    SUNNY     75  56  51 SE17      29.65F
6HR MIN TEMP:  70; 6HR MAX TEMP:  77;

JOPLIN         SUNNY     80  58  46 S13       29.59F
6HR MIN TEMP:  74; 6HR MAX TEMP:  81;

BRANSON        PTSUNNY   75  55  50 S10       29.69

$$
MOZ032>034-039>042-045>050-055>058-069>072-260100-
...CENTRAL MISSOURI...

CITY           SKY/WX    TMP DP  RH WIND       PRES   REMARKS
COLUMBIA       SUNNY     71  53  52 SE8       29.67F
6HR MIN TEMP:  67; 6HR MAX TEMP:  75;

JEFFERSON CITY SUNNY     76  51  41 SE8       29.66F
6HR MIN TEMP:  71; 6HR MAX TEMP:  77;

ROLLA          SUNNY     71  54  54 SE6       29.69S
6HR MIN TEMP:  68; 6HR MAX TEMP:  73;

SEDALIA        SUNNY     74  56  53 SE8       29.65S
6HR MIN TEMP:  71; 6HR MAX TEMP:  77;

WHITEMAN AFB   MOSUNNY   73  55  53 S9        29.62S
WARRENSBURG    MOSUNNY   72  54  53 SE10      29.61F
OSAGE BEACH    SUNNY     73  55  53 SE6       29.67F

$$
MOZ051-052-059>065-260100-
...EAST CENTRAL MISSOURI...

CITY           SKY/WX    TMP DP  RH WIND       PRES   REMARKS
ST LOUIS INTL  MOSUNNY   77  50  38 VRB6      29.71R
6HR MIN TEMP:  71; 6HR MAX TEMP:  78;

SPIRIT OF STL  MOSUNNY   74  52  46 SW6       29.70R
6HR MIN TEMP:  71; 6HR MAX TEMP:  76;

ST CHARLES     SUNNY     76  48  37 SW9       29.69S
6HR MIN TEMP:  69; 6HR MAX TEMP:  76;


$$
MOZ072>076-082>087-097>100-106>115-260100-
...SOUTH CENTRAL AND SOUTHEAST MISSOURI...

CITY           SKY/WX    TMP DP  RH WIND       PRES   REMARKS
CAPE GIRARDEAU SUNNY     74  50  42 SW10      29.74R
6HR MIN TEMP:  70; 6HR MAX TEMP:  76;

FARMINGTON     SUNNY     73  53  49 S9        29.73S
6HR MIN TEMP:  69; 6HR MAX TEMP:  75;

POPLAR BLUFF   SUNNY     73  54  51 SW9       29.74S
6HR MIN TEMP:  71; 6HR MAX TEMP:  76;

WEST PLAINS    SUNNY     74  53  48 S8        29.73F
6HR MIN TEMP:  68; 6HR MAX TEMP:  75;


$$



USA.gov is the U.S. government's official web portal to all federal, state and local government web resources and services.